• In Uzbekistan
  • List of Countries
  • For 7 days
  • Water Temperature
  • Satellite Maps
  • Weather Map
  • Weather Widgets
  • user-avatar
    Login

    Hourly Weather Rozdol'ne

    Today, 17 December, Sunday

    Time Temperature Precipitation Wind Pressure Humidity
    00:00 +6°C° 0 mm 7 mps 744 mmHg 80%
    01:00 +6°C° 0 mm 7 mps 744 mmHg 82%
    02:00 +7°C° 0 mm 6 mps 743 mmHg 85%
    03:00 +7°C° 0 mm 6 mps 744 mmHg 85%
    04:00 +7°C° 0 mm 6 mps 744 mmHg 84%
    05:00 +7°C° 0 mm 6 mps 744 mmHg 84%
    06:00 +7°C° 0.1 mm 6 mps 744 mmHg 84%
    07:00 +7°C° 0.1 mm 6 mps 744 mmHg 84%
    08:00 +7°C° 0 mm 5 mps 745 mmHg 83%
    09:00 +7°C° 0.8 mm 5 mps 745 mmHg 84%
    10:00 +7°C° 0.8 mm 5 mps 745 mmHg 85%
    11:00 +7°C° 0.8 mm 5 mps 745 mmHg 86%
    12:00 +7°C° 1 mm 5 mps 745 mmHg 88%
    13:00 +7°C° 1 mm 4 mps 745 mmHg 90%
    14:00 +8°C° 0 mm 3 mps 745 mmHg 93%
    15:00 +8°C° 0.6 mm 3 mps 745 mmHg 93%
    16:00 +7°C° 0.6 mm 3 mps 746 mmHg 93%
    17:00 +7°C° 0.6 mm 3 mps 746 mmHg 94%
    18:00 +6°C° 0.4 mm 4 mps 746 mmHg 93%
    19:00 +6°C° 0.4 mm 4 mps 746 mmHg 93%
    20:00 +6°C° 0.4 mm 4 mps 746 mmHg 92%
    21:00 +6°C° 0.7 mm 4 mps 746 mmHg 91%
    22:00 +6°C° 0.7 mm 5 mps 745 mmHg 90%
    23:00 +6°C° 0.7 mm 5 mps 745 mmHg 89%

    Tomorrow, 18 December, Monday

    Time Temperature Precipitation Wind Pressure Humidity
    00:00 +6°C° 1 mm 5 mps 745 mmHg 88%
    01:00 +6°C° 1 mm 5 mps 745 mmHg 88%
    02:00 +6°C° 1 mm 5 mps 744 mmHg 88%
    03:00 +5°C° 1.2 mm 6 mps 744 mmHg 87%
    04:00 +5°C° 1.2 mm 6 mps 744 mmHg 87%
    05:00 +5°C° 1.2 mm 6 mps 743 mmHg 86%
    06:00 +5°C° 1.1 mm 6 mps 743 mmHg 87%
    07:00 +5°C° 1.1 mm 6 mps 743 mmHg 88%
    08:00 +5°C° 1.1 mm 6 mps 742 mmHg 89%
    09:00 +5°C° 0.8 mm 6 mps 742 mmHg 89%
    10:00 +5°C° 0.8 mm 6 mps 742 mmHg 89%
    11:00 +5°C° 0.8 mm 6 mps 742 mmHg 89%
    12:00 +5°C° 0.7 mm 6 mps 741 mmHg 89%
    13:00 +5°C° 0.7 mm 6 mps 741 mmHg 90%
    14:00 +7°C° 0.7 mm 6 mps 741 mmHg 90%
    15:00 +7°C° 0.1 mm 6 mps 741 mmHg 89%
    16:00 +7°C° 0.1 mm 6 mps 741 mmHg 88%
    17:00 +6°C° 0.1 mm 7 mps 742 mmHg 88%
    18:00 +5°C° 0 mm 7 mps 742 mmHg 85%
    19:00 +4°C° 0 mm 7 mps 743 mmHg 83%
    20:00 +3°C° 0 mm 7 mps 743 mmHg 80%
    21:00 +2°C° 0 mm 7 mps 744 mmHg 79%
    22:00 +2°C° 0 mm 7 mps 744 mmHg 79%
    23:00 0°C° 0 mm 7 mps 745 mmHg 78%

    Day after tomorrow, 19 December, Tuesday

    Time Temperature Precipitation Wind Pressure Humidity
    00:00 +1°C° 0 mm 6 mps 745 mmHg 77%
    01:00 +1°C° 0 mm 6 mps 746 mmHg 77%
    02:00 -1°C° 0 mm 6 mps 746 mmHg 76%
    03:00 -1°C° 0 mm 6 mps 746 mmHg 76%
    04:00 -1°C° 0 mm 6 mps 747 mmHg 75%
    05:00 -2°C° 0 mm 6 mps 747 mmHg 74%
    06:00 -2°C° 0 mm 6 mps 747 mmHg 74%
    07:00 -1°C° 0 mm 5 mps 747 mmHg 74%
    08:00 -1°C° 0 mm 5 mps 748 mmHg 75%
    09:00 -1°C° 0 mm 5 mps 748 mmHg 73%
    10:00 -1°C° 0 mm 5 mps 748 mmHg 72%
    11:00 -2°C° 0 mm 6 mps 749 mmHg 71%
    12:00 -2°C° 0 mm 6 mps 749 mmHg 71%
    13:00 -2°C° 0 mm 6 mps 749 mmHg 71%
    14:00 -2°C° 0 mm 6 mps 749 mmHg 71%
    15:00 -2°C° 0 mm 6 mps 749 mmHg 72%
    16:00 -1°C° 0 mm 5 mps 750 mmHg 74%
    17:00 -1°C° 0 mm 5 mps 750 mmHg 75%
    18:00 -2°C° 0 mm 5 mps 750 mmHg 76%
    19:00 -2°C° 0 mm 5 mps 751 mmHg 76%
    20:00 -2°C° 0 mm 5 mps 751 mmHg 77%
    21:00 -2°C° 0 mm 5 mps 751 mmHg 78%
    22:00 -4°C° 0 mm 5 mps 752 mmHg 79%
    23:00 -4°C° 0 mm 5 mps 752 mmHg 80%

    20 December, Wednesday

    Time Temperature Precipitation Wind Pressure Humidity
    00:00 -3°C° 0 mm 4 mps 752 mmHg 80%
    01:00 -3°C° 0 mm 4 mps 752 mmHg 81%
    02:00 -3°C° 0 mm 4 mps 753 mmHg 81%
    03:00 -3°C° 0 mm 4 mps 753 mmHg 82%
    04:00 -4°C° 0 mm 4 mps 753 mmHg 83%
    05:00 -4°C° 0 mm 3 mps 753 mmHg 84%
    06:00 -4°C° 0 mm 3 mps 754 mmHg 83%
    07:00 -4°C° 0 mm 3 mps 754 mmHg 83%
    08:00 -4°C° 0 mm 3 mps 754 mmHg 83%
    09:00 -2°C° 0 mm 3 mps 755 mmHg 79%
    10:00 -2°C° 0 mm 3 mps 755 mmHg 76%
    11:00 -2°C° 0 mm 3 mps 755 mmHg 73%
    12:00 -1°C° 0 mm 3 mps 755 mmHg 71%
    13:00 -1°C° 0 mm 2 mps 755 mmHg 70%
    14:00 -1°C° 0 mm 2 mps 755 mmHg 68%
    15:00 +1°C° 0 mm 1 mps 755 mmHg 69%
    16:00 +1°C° 0 mm 1 mps 756 mmHg 71%
    17:00 0°C° 0 mm 1 mps 756 mmHg 72%
    18:00 0°C° 0 mm 1 mps 756 mmHg 73%
    19:00 0°C° 0 mm 1 mps 756 mmHg 75%
    20:00 0°C° 0 mm 1 mps 756 mmHg 76%
    21:00 -1°C° 0 mm 1 mps 756 mmHg 77%
    22:00 -3°C° 0 mm 2 mps 756 mmHg 78%
    23:00 -3°C° 0 mm 2 mps 756 mmHg 78%

    21 December, Thursday

    Time Temperature Precipitation Wind Pressure Humidity
    00:00 -3°C° 0 mm 2 mps 756 mmHg 79%
    01:00 -2°C° 0 mm 2 mps 756 mmHg 79%
    02:00 -2°C° 0 mm 2 mps 755 mmHg 79%
    03:00 -2°C° 0.1 mm 3 mps 755 mmHg 79%
    04:00 -2°C° 0.1 mm 3 mps 754 mmHg 79%
    05:00 -2°C° 0.1 mm 3 mps 754 mmHg 79%
    06:00 -3°C° 1.1 mm 4 mps 753 mmHg 84%
    07:00 -4°C° 1.1 mm 5 mps 753 mmHg 88%
    08:00 -4°C° 1.1 mm 5 mps 752 mmHg 93%
    09:00 -4°C° 1.4 mm 5 mps 751 mmHg 94%
    10:00 -2°C° 1.4 mm 5 mps 751 mmHg 95%
    11:00 -2°C° 1.4 mm 5 mps 750 mmHg 96%
    12:00 -2°C° 1.3 mm 5 mps 749 mmHg 96%
    13:00 -2°C° 1.3 mm 5 mps 749 mmHg 96%
    14:00 -2°C° 1.3 mm 5 mps 748 mmHg 96%
    15:00 -2°C° 0.6 mm 5 mps 748 mmHg 95%
    16:00 -4°C° 0.6 mm 5 mps 748 mmHg 95%
    17:00 -4°C° 0.6 mm 6 mps 748 mmHg 94%
    18:00 -4°C° 0.3 mm 6 mps 748 mmHg 93%
    19:00 -5°C° 0.3 mm 6 mps 748 mmHg 93%
    20:00 -6°C° 0.3 mm 7 mps 748 mmHg 92%
    21:00 -6°C° 0.1 mm 7 mps 748 mmHg 92%
    22:00 -6°C° 0.1 mm 7 mps 748 mmHg 91%
    23:00 -7°C° 0.1 mm 7 mps 748 mmHg 91%

    22 December, Friday

    Time Temperature Precipitation Wind Pressure Humidity
    00:00 -6°C° 0.1 mm 6 mps 748 mmHg 91%
    01:00 -6°C° 0.1 mm 6 mps 748 mmHg 91%
    02:00 -6°C° 0.1 mm 6 mps 748 mmHg 91%
    03:00 -6°C° 0.1 mm 6 mps 748 mmHg 91%
    04:00 -6°C° 0.1 mm 5 mps 748 mmHg 92%
    05:00 -6°C° 0.1 mm 5 mps 748 mmHg 92%
    06:00 -6°C° 0.2 mm 5 mps 748 mmHg 92%
    07:00 -6°C° 0.2 mm 5 mps 748 mmHg 93%
    08:00 -6°C° 0.2 mm 5 mps 748 mmHg 93%
    09:00 -6°C° 0.2 mm 5 mps 748 mmHg 92%
    10:00 -6°C° 0.2 mm 5 mps 748 mmHg 92%
    11:00 -5°C° 0.2 mm 5 mps 748 mmHg 91%
    12:00 -5°C° 0.1 mm 5 mps 748 mmHg 91%
    13:00 -5°C° 0.1 mm 5 mps 747 mmHg 90%
    14:00 -5°C° 0.1 mm 5 mps 747 mmHg 90%
    15:00 -4°C° 0.1 mm 4 mps 747 mmHg 90%
    16:00 -4°C° 0.1 mm 4 mps 747 mmHg 91%
    17:00 -5°C° 0.1 mm 4 mps 747 mmHg 91%
    18:00 -5°C° 0 mm 4 mps 747 mmHg 91%
    19:00 -5°C° 0 mm 4 mps 747 mmHg 91%
    20:00 -5°C° 0 mm 4 mps 747 mmHg 91%
    21:00 -7°C° 0 mm 4 mps 746 mmHg 91%
    22:00 -7°C° 0 mm 4 mps 746 mmHg 92%
    23:00 -8°C° 0 mm 4 mps 745 mmHg 93%
    Show more